AFL25 ULLI-UUEE

Flight info

Callsign AFL25
Flight time 1h 5m
Altitude 35000
Route SUGIN1A SUGIN T873 NIRGI T73 NAMIN NAMIN3F
Aircraft A333/H-SDE3GHIJ2J3J5M1RVWXY/LB2D1

Departure

Time 2026-05-05 17:16
Airport Pulkovo Airport (ULLI)

Arrival

Time 2026-05-05 18:21
Airport Sheremetyevo International Airport (UUEE)
Time Latitude Longitude Altitude Speed Heading
2026-05-05 16:41 59.79820 30.26637 91 ft 0 kts 106°
2026-05-05 17:02 59.79823 30.26614 91 ft 2 kts 106°
2026-05-05 17:03 59.79826 30.26596 91 ft 2 kts 104°
2026-05-05 17:03 59.79828 30.26567 91 ft 2 kts 86°
2026-05-05 17:03 59.79826 30.26538 91 ft 2 kts 72°
2026-05-05 17:03 59.79820 30.26511 91 ft 2 kts 58°
2026-05-05 17:04 59.79812 30.26487 91 ft 2 kts 44°
2026-05-05 17:04 59.79800 30.26469 91 ft 2 kts 31°
2026-05-05 17:04 59.79788 30.26456 91 ft 1 kts 17°
2026-05-05 17:04 59.79785 30.26454 91 ft 0 kts 15°
2026-05-05 17:07 59.79789 30.26457 91 ft 2 kts 17°
2026-05-05 17:07 59.79822 30.26479 91 ft 7 kts 18°
2026-05-05 17:07 59.79884 30.26518 91 ft 11 kts 17°
2026-05-05 17:08 59.79974 30.26572 91 ft 15 kts 15°
2026-05-05 17:08 59.80093 30.26640 91 ft 19 kts 17°
2026-05-05 17:08 59.80219 30.26712 91 ft 17 kts 15°
2026-05-05 17:08 59.80329 30.26776 91 ft 11 kts 16°
2026-05-05 17:09 59.80380 30.26867 91 ft 10 kts 76°
2026-05-05 17:09 59.80374 30.27011 91 ft 10 kts 103°
2026-05-05 17:09 59.80351 30.27177 91 ft 15 kts 106°
2026-05-05 17:09 59.80315 30.27411 91 ft 20 kts 106°
2026-05-05 17:10 59.80271 30.27708 91 ft 23 kts 107°
2026-05-05 17:10 59.80225 30.28017 91 ft 23 kts 106°
2026-05-05 17:10 59.80179 30.28333 91 ft 23 kts 106°
2026-05-05 17:10 59.80132 30.28641 91 ft 23 kts 106°
2026-05-05 17:11 59.80087 30.28939 91 ft 19 kts 106°
2026-05-05 17:11 59.80050 30.29192 91 ft 19 kts 105°
2026-05-05 17:11 59.80013 30.29442 91 ft 17 kts 106°
2026-05-05 17:11 59.79980 30.29656 91 ft 13 kts 106°
2026-05-05 17:12 59.79956 30.29819 91 ft 9 kts 106°
2026-05-05 17:12 59.79939 30.29945 91 ft 9 kts 100°
2026-05-05 17:12 59.79953 30.30050 91 ft 8 kts 51°
2026-05-05 17:12 59.79983 30.30119 91 ft 3 kts 48°
2026-05-05 17:13 59.79984 30.30122 91 ft 0 kts 48°
2026-05-05 17:13 59.79991 30.30138 91 ft 4 kts 48°
2026-05-05 17:14 59.80025 30.30211 91 ft 9 kts 47°
2026-05-05 17:14 59.80080 30.30278 91 ft 8 kts
2026-05-05 17:14 59.80123 30.30225 91 ft 8 kts 297°
2026-05-05 17:14 59.80135 30.30160 91 ft 0 kts 287°
2026-05-05 17:15 59.80136 30.30155 91 ft 0 kts 287°
2026-05-05 17:15 59.80136 30.30152 91 ft 3 kts 287°
2026-05-05 17:15 59.80215 30.29614 91 ft 88 kts 287°
2026-05-05 17:16 59.80470 30.27930 219 ft 157 kts 286°
2026-05-05 17:16 59.80806 30.25752 1037 ft 172 kts 287°
2026-05-05 17:16 59.81143 30.23617 2203 ft 164 kts 287°
2026-05-05 17:16 59.81475 30.21378 2629 ft 176 kts 285°
2026-05-05 17:17 59.81827 30.18954 2960 ft 196 kts 285°
2026-05-05 17:17 59.82222 30.16226 3555 ft 212 kts 285°
2026-05-05 17:17 59.82629 30.13415 4460 ft 215 kts 283°
2026-05-05 17:17 59.83012 30.10593 5391 ft 215 kts 276°
2026-05-05 17:18 59.83356 30.07692 6218 ft 221 kts 285°
2026-05-05 17:18 59.83848 30.04841 7124 ft 221 kts 282°
2026-05-05 17:18 59.84263 30.01969 8081 ft 218 kts 275°
2026-05-05 17:18 59.84070 29.99088 8978 ft 214 kts 244°
2026-05-05 17:19 59.83058 29.96967 9837 ft 223 kts 215°
2026-05-05 17:19 59.81568 29.95943 10722 ft 232 kts 205°
2026-05-05 17:19 59.80042 29.95029 11549 ft 234 kts 205°
2026-05-05 17:19 59.78487 29.94125 12358 ft 236 kts 205°
2026-05-05 17:20 59.76899 29.93212 13166 ft 240 kts 204°
2026-05-05 17:20 59.75156 29.92938 13576 ft 275 kts 181°
2026-05-05 17:20 59.73255 29.94409 13924 ft 317 kts 156°
2026-05-05 17:20 59.71602 29.97590 14273 ft 355 kts 133°
2026-05-05 17:21 59.70496 30.02198 14558 ft 390 kts 111°
2026-05-05 17:21 59.69941 30.07638 14815 ft 410 kts 109°
2026-05-05 17:21 59.68860 30.12843 15103 ft 420 kts 121°
2026-05-05 17:22 59.66420 30.23510 16516 ft 431 kts 120°
2026-05-05 17:22 59.65174 30.28967 17147 ft 438 kts 120°
2026-05-05 17:22 59.63932 30.34403 17823 ft 443 kts 120°
2026-05-05 17:22 59.62664 30.39936 18515 ft 447 kts 119°
2026-05-05 17:23 59.61363 30.45603 19168 ft 452 kts 119°
2026-05-05 17:23 59.60062 30.51253 19810 ft 456 kts 120°
2026-05-05 17:23 59.58761 30.56884 20454 ft 459 kts 120°
2026-05-05 17:23 59.57420 30.62673 20977 ft 465 kts 119°
2026-05-05 17:24 59.56089 30.68412 21585 ft 468 kts 120°
2026-05-05 17:24 59.54734 30.74228 22154 ft 472 kts 120°
2026-05-05 17:24 59.53348 30.80163 22614 ft 478 kts 120°
2026-05-05 17:24 59.51960 30.86092 23196 ft 480 kts 120°
2026-05-05 17:25 59.50564 30.92037 23721 ft 484 kts 120°
2026-05-05 17:25 59.49625 30.96030 24024 ft 487 kts 120°
2026-05-05 17:25 59.47729 31.04061 24735 ft 490 kts 120°
2026-05-05 17:25 59.46298 31.10106 25256 ft 494 kts 120°
2026-05-05 17:26 59.44844 31.16229 25798 ft 496 kts 120°
2026-05-05 17:26 59.43377 31.22394 26292 ft 500 kts 120°
2026-05-05 17:26 59.41907 31.28546 26820 ft 502 kts 120°
2026-05-05 17:26 59.40436 31.34691 27321 ft 505 kts 120°
2026-05-05 17:27 59.38929 31.40971 27810 ft 509 kts 120°
2026-05-05 17:27 59.37430 31.47194 28295 ft 511 kts 120°
2026-05-05 17:27 59.35907 31.53504 28774 ft 514 kts 120°
2026-05-05 17:27 59.34377 31.59816 29199 ft 517 kts 120°
2026-05-05 17:28 59.32830 31.66190 29713 ft 518 kts 121°
2026-05-05 17:28 59.31273 31.72582 30362 ft 516 kts 121°
2026-05-05 17:28 59.29740 31.78860 30988 ft 513 kts 121°
2026-05-05 17:28 59.28191 31.85178 31499 ft 512 kts 121°
2026-05-05 17:29 59.26659 31.91412 31987 ft 511 kts 121°
2026-05-05 17:29 59.25100 31.97741 32523 ft 509 kts 121°
2026-05-05 17:29 59.23558 32.03979 32994 ft 507 kts 121°
2026-05-05 17:29 59.22015 32.10201 33505 ft 505 kts 121°
2026-05-05 17:30 59.20489 32.16348 33983 ft 503 kts 121°
2026-05-05 17:30 59.18967 32.22446 34445 ft 502 kts 121°
2026-05-05 17:30 59.17446 32.28533 34735 ft 503 kts 121°
2026-05-05 17:31 59.14373 32.40787 34731 ft 502 kts 121°
2026-05-05 17:31 59.11298 32.52972 34741 ft 502 kts 121°
2026-05-05 17:32 59.09312 32.60802 34733 ft 501 kts 121°
2026-05-05 17:32 59.06231 32.72902 34717 ft 501 kts 121°
2026-05-05 17:33 59.03125 32.85033 34720 ft 502 kts 121°
2026-05-05 17:33 59.00019 32.97106 34718 ft 502 kts 122°
2026-05-05 17:34 58.96920 33.09079 34730 ft 501 kts 122°
2026-05-05 17:34 58.93776 33.21159 34721 ft 501 kts 122°
2026-05-05 17:35 58.89981 33.32086 34724 ft 485 kts 142°
2026-05-05 17:35 58.85086 33.41043 34733 ft 487 kts 142°
2026-05-05 17:36 58.80203 33.50062 34731 ft 487 kts 142°
2026-05-05 17:36 58.75346 33.59013 34735 ft 486 kts 142°
2026-05-05 17:37 58.70459 33.67981 34737 ft 486 kts 143°
2026-05-05 17:37 58.65572 33.76910 34738 ft 486 kts 143°
2026-05-05 17:38 58.60677 33.85820 34749 ft 486 kts 143°
2026-05-05 17:38 58.55769 33.94717 34751 ft 485 kts 143°
2026-05-05 17:39 58.50854 34.03590 34751 ft 487 kts 143°
2026-05-05 17:39 58.45924 34.12453 34751 ft 488 kts 143°
2026-05-05 17:40 58.41002 34.21269 34757 ft 488 kts 143°
2026-05-05 17:40 58.36023 34.30148 34752 ft 490 kts 143°
2026-05-05 17:41 58.31068 34.38955 34754 ft 488 kts 143°
2026-05-05 17:41 58.26075 34.47786 34760 ft 491 kts 143°
2026-05-05 17:42 58.21098 34.56558 34759 ft 490 kts 143°
2026-05-05 17:42 58.15952 34.64885 34758 ft 487 kts 146°
2026-05-05 17:43 58.10742 34.73114 34744 ft 488 kts 147°
2026-05-05 17:43 58.05527 34.81340 34750 ft 490 kts 147°
2026-05-05 17:44 58.00308 34.89541 34756 ft 490 kts 147°
2026-05-05 17:44 57.95072 34.97737 34761 ft 490 kts 147°
2026-05-05 17:45 57.89842 35.05892 34769 ft 489 kts 147°
2026-05-05 17:45 57.84604 35.14027 34774 ft 489 kts 147°
2026-05-05 17:46 57.79379 35.22110 34790 ft 488 kts 147°
2026-05-05 17:46 57.74128 35.30201 34790 ft 488 kts 147°
2026-05-05 17:47 57.68913 35.38206 34798 ft 488 kts 147°
2026-05-05 17:47 57.63650 35.46254 34632 ft 490 kts 146°
2026-05-05 17:47 57.61014 35.50275 34348 ft 487 kts 146°
2026-05-05 17:48 57.58402 35.54260 34087 ft 487 kts 146°
2026-05-05 17:48 57.55787 35.58253 33839 ft 487 kts 146°
2026-05-05 17:48 57.53177 35.62227 33588 ft 489 kts 146°
2026-05-05 17:48 57.50538 35.66236 33325 ft 492 kts 147°
2026-05-05 17:49 57.47881 35.70266 32533 ft 500 kts 147°
2026-05-05 17:49 57.45189 35.74342 31719 ft 503 kts 147°
2026-05-05 17:49 57.42462 35.78464 30949 ft 503 kts 147°
2026-05-05 17:49 57.39779 35.82512 30269 ft 501 kts 147°
2026-05-05 17:50 57.37091 35.86557 29683 ft 497 kts 147°
2026-05-05 17:50 57.34423 35.90565 29094 ft 493 kts 147°
2026-05-05 17:50 57.31779 35.94529 28496 ft 490 kts 147°
2026-05-05 17:50 57.29151 35.98460 27858 ft 486 kts 147°
2026-05-05 17:51 57.26512 36.02403 27193 ft 479 kts 147°
2026-05-05 17:51 57.23962 36.06214 26615 ft 464 kts 147°
2026-05-05 17:51 57.21495 36.09884 26122 ft 449 kts 147°
2026-05-05 17:51 57.19105 36.13437 25656 ft 435 kts 147°
2026-05-05 17:52 57.16814 36.16830 25215 ft 423 kts 147°
2026-05-05 17:52 57.14525 36.20217 24814 ft 423 kts 147°
2026-05-05 17:52 57.12249 36.23576 24339 ft 423 kts 147°
2026-05-05 17:52 57.09969 36.26945 23833 ft 421 kts 147°
2026-05-05 17:53 57.07709 36.30273 23314 ft 419 kts 147°
2026-05-05 17:53 57.05434 36.33617 22788 ft 416 kts 146°
2026-05-05 17:53 57.03190 36.36911 22245 ft 414 kts 147°
2026-05-05 17:53 57.00943 36.40160 21724 ft 411 kts 147°
2026-05-05 17:54 56.98725 36.43367 21207 ft 408 kts 147°
2026-05-05 17:54 56.96521 36.46544 20705 ft 404 kts 147°
2026-05-05 17:54 56.94305 36.49740 20202 ft 401 kts 147°
2026-05-05 17:54 56.92156 36.52831 19717 ft 397 kts 147°
2026-05-05 17:55 56.90005 36.55920 19232 ft 393 kts 146°
2026-05-05 17:55 56.87876 36.58993 18756 ft 388 kts 146°
2026-05-05 17:55 56.85766 36.62046 18281 ft 384 kts 146°
2026-05-05 17:55 56.83683 36.65060 17822 ft 380 kts 147°
2026-05-05 17:56 56.81622 36.68035 17353 ft 376 kts 147°
2026-05-05 17:56 56.79593 36.70961 16896 ft 373 kts 147°
2026-05-05 17:56 56.77558 36.73887 16431 ft 370 kts 147°
2026-05-05 17:56 56.75577 36.76736 15976 ft 366 kts 147°
2026-05-05 17:57 56.73611 36.79606 15852 ft 356 kts 143°
2026-05-05 17:57 56.72098 36.83121 15742 ft 354 kts 121°
2026-05-05 17:57 56.71373 36.87334 15668 ft 356 kts 101°
2026-05-05 17:57 56.71002 36.91830 15244 ft 359 kts 100°
2026-05-05 17:58 56.70626 36.96310 14824 ft 357 kts 100°
2026-05-05 17:58 56.70240 37.00827 14435 ft 373 kts 101°
2026-05-05 17:58 56.69844 37.05459 13823 ft 369 kts 101°
2026-05-05 17:58 56.69453 37.09997 13285 ft 361 kts 101°
2026-05-05 17:59 56.69069 37.14403 12767 ft 353 kts 100°
2026-05-05 17:59 56.68690 37.18771 12264 ft 346 kts 101°
2026-05-05 17:59 56.68315 37.23050 11776 ft 338 kts 100°
2026-05-05 17:59 56.67949 37.27211 11326 ft 331 kts 100°
2026-05-05 18:00 56.67593 37.31264 10929 ft 325 kts 100°
2026-05-05 18:00 56.67143 37.35261 10883 ft 317 kts 112°
2026-05-05 18:00 56.66058 37.38528 10764 ft 294 kts 138°
2026-05-05 18:00 56.64432 37.40625 10497 ft 284 kts 160°
2026-05-05 18:01 56.62658 37.42139 10243 ft 280 kts 160°
2026-05-05 18:01 56.60893 37.43605 9996 ft 279 kts 161°
2026-05-05 18:01 56.59158 37.45021 9750 ft 273 kts 161°
2026-05-05 18:01 56.57432 37.46412 9527 ft 266 kts 161°
2026-05-05 18:02 56.55754 37.47752 9285 ft 264 kts 161°
2026-05-05 18:02 56.54069 37.49092 9108 ft 263 kts 161°
2026-05-05 18:02 56.52377 37.50024 9013 ft 249 kts 183°
2026-05-05 18:02 56.50711 37.49401 9031 ft 244 kts 212°
2026-05-05 18:03 56.49320 37.47789 9016 ft 238 kts 218°
2026-05-05 18:03 56.47938 37.46103 9012 ft 240 kts 218°
2026-05-05 18:03 56.46571 37.44408 8998 ft 239 kts 219°
2026-05-05 18:03 56.45186 37.42675 9011 ft 240 kts 219°
2026-05-05 18:04 56.43909 37.40880 8978 ft 229 kts 233°
2026-05-05 18:04 56.43246 37.38331 9009 ft 223 kts 262°
2026-05-05 18:04 56.43245 37.35609 9000 ft 212 kts 271°
2026-05-05 18:04 56.43298 37.32978 8990 ft 209 kts 271°
2026-05-05 18:05 56.43364 37.30369 8991 ft 208 kts 271°
2026-05-05 18:05 56.43433 37.27772 8994 ft 208 kts 271°
2026-05-05 18:05 56.43505 37.25159 8995 ft 207 kts 271°
2026-05-05 18:05 56.43560 37.22531 8986 ft 207 kts 265°
2026-05-05 18:06 56.43111 37.20044 8997 ft 210 kts 245°
2026-05-05 18:06 56.42672 37.18465 9000 ft 211 kts 246°
2026-05-05 18:06 56.41822 37.15299 8987 ft 210 kts 246°
2026-05-05 18:06 56.41184 37.12938 8981 ft 211 kts 246°
2026-05-05 18:07 56.40517 37.10562 8973 ft 212 kts 239°
2026-05-05 18:07 56.39384 37.08854 8977 ft 221 kts 206°
2026-05-05 18:07 56.37841 37.08571 8994 ft 236 kts 174°
2026-05-05 18:07 56.36350 37.09882 9003 ft 248 kts 142°
2026-05-05 18:08 56.35206 37.12308 9023 ft 252 kts 136°
2026-05-05 18:08 56.33997 37.14557 9010 ft 250 kts 141°
2026-05-05 18:08 56.32741 37.16719 9003 ft 251 kts 142°
2026-05-05 18:08 56.31460 37.18867 8997 ft 250 kts 142°
2026-05-05 18:09 56.30173 37.21005 8994 ft 251 kts 142°
2026-05-05 18:09 56.28890 37.23131 8964 ft 251 kts 142°
2026-05-05 18:09 56.27601 37.25262 8733 ft 254 kts 142°
2026-05-05 18:09 56.26307 37.27400 8494 ft 254 kts 142°
2026-05-05 18:10 56.24931 37.29255 8247 ft 246 kts 162°
2026-05-05 18:10 56.23321 37.30136 8027 ft 239 kts 170°
2026-05-05 18:10 56.21715 37.30936 7779 ft 239 kts 170°
2026-05-05 18:10 56.20126 37.31730 7544 ft 238 kts 170°
2026-05-05 18:11 56.18535 37.32559 7321 ft 240 kts 163°
2026-05-05 18:11 56.17188 37.34356 7102 ft 248 kts 130°
2026-05-05 18:11 56.16497 37.37212 6820 ft 258 kts 98°
2026-05-05 18:11 56.16686 37.40398 6581 ft 256 kts 66°
2026-05-05 18:12 56.17342 37.43314 6340 ft 257 kts 69°
2026-05-05 18:12 56.17876 37.46411 6074 ft 259 kts 72°
2026-05-05 18:12 56.18363 37.49523 5817 ft 259 kts 73°
2026-05-05 18:12 56.18836 37.52640 5558 ft 261 kts 73°
2026-05-05 18:13 56.19284 37.55773 5284 ft 261 kts 79°
2026-05-05 18:13 56.19154 37.58981 5046 ft 260 kts 110°
2026-05-05 18:13 56.18219 37.61620 4967 ft 246 kts 137°
2026-05-05 18:13 56.17013 37.63759 4763 ft 244 kts 136°
2026-05-05 18:14 56.15836 37.65910 4588 ft 241 kts 137°
2026-05-05 18:14 56.14673 37.68038 4413 ft 239 kts 137°
2026-05-05 18:14 56.13520 37.70152 4262 ft 236 kts 137°
2026-05-05 18:14 56.12386 37.72226 4197 ft 229 kts 137°
2026-05-05 18:15 56.11276 37.74259 4121 ft 229 kts 137°
2026-05-05 18:15 56.10130 37.76236 4039 ft 227 kts 149°
2026-05-05 18:15 56.08704 37.77137 3993 ft 217 kts 182°
2026-05-05 18:15 56.07301 37.76650 3990 ft 196 kts 202°
2026-05-05 18:16 56.06039 37.75947 3947 ft 183 kts 201°
2026-05-05 18:16 56.04864 37.75285 3908 ft 181 kts 202°
2026-05-05 18:16 56.03634 37.74582 3947 ft 188 kts 202°
2026-05-05 18:16 56.02416 37.73764 3939 ft 188 kts 218°
2026-05-05 18:17 56.01643 37.71986 3891 ft 182 kts 255°
2026-05-05 18:17 56.01339 37.69795 3607 ft 183 kts 257°
2026-05-05 18:17 56.01017 37.67603 3339 ft 180 kts 256°
2026-05-05 18:17 56.00699 37.65486 3129 ft 174 kts 256°
2026-05-05 18:18 56.00396 37.63430 2850 ft 168 kts 256°
2026-05-05 18:18 56.00117 37.61515 2624 ft 149 kts 256°
2026-05-05 18:18 55.99860 37.59775 2429 ft 144 kts 256°
2026-05-05 18:18 55.99606 37.58054 2218 ft 143 kts 256°
2026-05-05 18:19 55.99354 37.56350 2028 ft 143 kts 256°
2026-05-05 18:19 55.99102 37.54644 1832 ft 143 kts 256°
2026-05-05 18:19 55.98846 37.52927 1638 ft 143 kts 255°
2026-05-05 18:19 55.98591 37.51201 1442 ft 143 kts 255°
2026-05-05 18:20 55.98338 37.49501 1248 ft 141 kts 255°
2026-05-05 18:20 55.98087 37.47815 1065 ft 141 kts 255°
2026-05-05 18:20 55.97818 37.46104 875 ft 142 kts 255°
2026-05-05 18:20 55.97575 37.44394 693 ft 142 kts 256°
2026-05-05 18:21 55.97326 37.42749 641 ft 130 kts 255°
2026-05-05 18:21 55.97145 37.41530 641 ft 73 kts 256°
2026-05-05 18:21 55.97052 37.40908 641 ft 39 kts 256°
2026-05-05 18:21 55.96985 37.40465 641 ft 28 kts 255°
2026-05-05 18:22 55.96953 37.40248 641 ft 17 kts 256°
2026-05-05 18:22 55.96968 37.40063 641 ft 13 kts 327°
2026-05-05 18:22 55.97034 37.40019 641 ft 8 kts 343°
2026-05-05 18:22 55.97087 37.39992 641 ft 8 kts 345°
2026-05-05 18:23 55.97141 37.39966 641 ft 8 kts 345°
2026-05-05 18:23 55.97214 37.39931 641 ft 12 kts 345°
2026-05-05 18:23 55.97300 37.39898 641 ft 12 kts
2026-05-05 18:23 55.97351 37.40003 641 ft 11 kts 70°
2026-05-05 18:24 55.97374 37.40139 641 ft 11 kts 75°
2026-05-05 18:24 55.97394 37.40278 641 ft 11 kts 76°
2026-05-05 18:24 55.97415 37.40418 641 ft 11 kts 76°
2026-05-05 18:24 55.97435 37.40557 641 ft 11 kts 76°
2026-05-05 18:25 55.97456 37.40696 641 ft 11 kts 75°
2026-05-05 18:25 55.97470 37.40790 641 ft 11 kts 75°
2026-05-05 18:25 55.97498 37.40974 641 ft 10 kts 75°
2026-05-05 18:25 55.97518 37.41096 641 ft 9 kts 63°
2026-05-05 18:26 55.97577 37.41137 641 ft 9 kts 356°
2026-05-05 18:26 55.97629 37.41189 641 ft 9 kts 59°
2026-05-05 18:26 55.97651 37.41298 641 ft 9 kts 75°
2026-05-05 18:26 55.97668 37.41410 641 ft 9 kts 75°
2026-05-05 18:27 55.97695 37.41511 641 ft 9 kts 40°
2026-05-05 18:27 55.97741 37.41582 641 ft 8 kts 46°
2026-05-05 18:27 55.97773 37.41645 641 ft 5 kts 48°
2026-05-05 18:27 55.97789 37.41676 641 ft 2 kts 49°
2026-05-05 18:28 55.97798 37.41695 641 ft 0 kts 49°